• In United Kingdom
  • List of Countries
  • For 7 days
  • Water Temperature
  • Satellite Maps
  • Weather Map
  • Weather Widgets
  • user-avatar
    Login

    Hourly Weather Perth

    Today, 20 October, Friday

    Time Temperature Precipitation Wind Pressure Humidity
    00:00 +16°C° 0 mm 5 mps 766 mmHg 43%
    01:00 +16°C° 0 mm 6 mps 766 mmHg 45%
    02:00 +17°C° 0 mm 8 mps 766 mmHg 42%
    03:00 +16°C° 0 mm 7 mps 766 mmHg 44%
    04:00 +16°C° 0 mm 7 mps 766 mmHg 46%
    05:00 +16°C° 0 mm 7 mps 766 mmHg 48%
    06:00 +17°C° 0 mm 7 mps 766 mmHg 46%
    07:00 +18°C° 0 mm 7 mps 766 mmHg 44%
    08:00 +21°C° 0 mm 8 mps 767 mmHg 41%
    09:00 +23°C° 0 mm 7 mps 766 mmHg 38%
    10:00 +26°C° 0 mm 6 mps 766 mmHg 35%
    11:00 +28°C° 0 mm 6 mps 766 mmHg 31%
    12:00 +29°C° 0 mm 5 mps 765 mmHg 29%
    13:00 +30°C° 0 mm 4 mps 765 mmHg 27%
    14:00 +31°C° 0 mm 3 mps 764 mmHg 25%
    15:00 +31°C° 0 mm 3 mps 764 mmHg 26%
    16:00 +30°C° 0 mm 3 mps 764 mmHg 27%
    17:00 +30°C° 0 mm 3 mps 764 mmHg 29%
    18:00 +28°C° 0 mm 3 mps 764 mmHg 31%
    19:00 +26°C° 0 mm 4 mps 764 mmHg 33%
    20:00 +22°C° 0 mm 4 mps 765 mmHg 36%
    21:00 +22°C° 0 mm 5 mps 764 mmHg 34%
    22:00 +22°C° 0 mm 5 mps 764 mmHg 32%
    23:00 +22°C° 0 mm 6 mps 764 mmHg 30%

    Tomorrow, 21 October, Saturday

    Time Temperature Precipitation Wind Pressure Humidity
    00:00 +22°C° 0 mm 6 mps 764 mmHg 30%
    01:00 +21°C° 0 mm 6 mps 764 mmHg 30%
    02:00 +21°C° 0 mm 6 mps 763 mmHg 30%
    03:00 +21°C° 0 mm 6 mps 763 mmHg 30%
    04:00 +21°C° 0 mm 6 mps 763 mmHg 30%
    05:00 +20°C° 0 mm 6 mps 763 mmHg 31%
    06:00 +22°C° 0 mm 6 mps 763 mmHg 32%
    07:00 +23°C° 0 mm 7 mps 763 mmHg 33%
    08:00 +24°C° 0 mm 7 mps 763 mmHg 35%
    09:00 +26°C° 0 mm 7 mps 763 mmHg 35%
    10:00 +27°C° 0 mm 7 mps 763 mmHg 36%
    11:00 +27°C° 0 mm 7 mps 763 mmHg 36%
    12:00 +28°C° 0.1 mm 7 mps 762 mmHg 39%
    13:00 +28°C° 0.1 mm 7 mps 762 mmHg 41%
    14:00 +29°C° 0.1 mm 7 mps 761 mmHg 43%
    15:00 +27°C° 0.2 mm 7 mps 761 mmHg 49%
    16:00 +26°C° 0.2 mm 6 mps 761 mmHg 55%
    17:00 +23°C° 0.2 mm 6 mps 761 mmHg 61%
    18:00 +23°C° 0.1 mm 6 mps 761 mmHg 62%
    19:00 +23°C° 0.1 mm 6 mps 761 mmHg 63%
    20:00 +22°C° 0.1 mm 6 mps 760 mmHg 63%
    21:00 +22°C° 0.6 mm 7 mps 760 mmHg 67%
    22:00 +21°C° 0.6 mm 8 mps 760 mmHg 71%
    23:00 +19°C° 0.6 mm 9 mps 760 mmHg 75%

    Day after tomorrow, 22 October, Sunday

    Time Temperature Precipitation Wind Pressure Humidity
    00:00 +19°C° 0.2 mm 9 mps 760 mmHg 73%
    01:00 +19°C° 0.2 mm 9 mps 759 mmHg 72%
    02:00 +21°C° 0.2 mm 9 mps 758 mmHg 70%
    03:00 +20°C° 0.1 mm 8 mps 758 mmHg 71%
    04:00 +20°C° 0.1 mm 7 mps 758 mmHg 72%
    05:00 +20°C° 0.1 mm 6 mps 758 mmHg 72%
    06:00 +21°C° 0.1 mm 6 mps 758 mmHg 70%
    07:00 +21°C° 0.1 mm 5 mps 758 mmHg 67%
    08:00 +22°C° 0.1 mm 5 mps 758 mmHg 65%
    09:00 +25°C° 0 mm 4 mps 758 mmHg 57%
    10:00 +28°C° 0 mm 3 mps 757 mmHg 50%
    11:00 +30°C° 0 mm 2 mps 757 mmHg 43%
    12:00 +30°C° 0 mm 2 mps 757 mmHg 41%
    13:00 +30°C° 0 mm 3 mps 756 mmHg 40%
    14:00 +32°C° 0 mm 4 mps 756 mmHg 38%
    15:00 +29°C° 0 mm 4 mps 756 mmHg 44%
    16:00 +28°C° 0 mm 4 mps 756 mmHg 49%
    17:00 +27°C° 0 mm 3 mps 756 mmHg 55%
    18:00 +25°C° 0 mm 3 mps 756 mmHg 63%
    19:00 +22°C° 0 mm 3 mps 757 mmHg 72%
    20:00 +20°C° 0 mm 2 mps 757 mmHg 80%
    21:00 +20°C° 0 mm 2 mps 757 mmHg 82%
    22:00 +19°C° 0 mm 2 mps 757 mmHg 84%
    23:00 +19°C° 0 mm 2 mps 757 mmHg 86%

    23 October, Monday

    Time Temperature Precipitation Wind Pressure Humidity
    00:00 +18°C° 0 mm 2 mps 757 mmHg 88%
    01:00 +18°C° 0 mm 2 mps 757 mmHg 90%
    02:00 +18°C° 0 mm 2 mps 757 mmHg 92%
    03:00 +18°C° 0 mm 2 mps 757 mmHg 92%
    04:00 +18°C° 0 mm 2 mps 757 mmHg 92%
    05:00 +18°C° 0 mm 2 mps 757 mmHg 93%
    06:00 +19°C° 0 mm 3 mps 757 mmHg 86%
    07:00 +21°C° 0 mm 3 mps 758 mmHg 80%
    08:00 +22°C° 0 mm 3 mps 758 mmHg 73%
    09:00 +25°C° 0 mm 4 mps 758 mmHg 67%
    10:00 +26°C° 0 mm 4 mps 758 mmHg 60%
    11:00 +27°C° 0 mm 4 mps 758 mmHg 54%
    12:00 +27°C° 0 mm 5 mps 758 mmHg 54%
    13:00 +27°C° 0 mm 5 mps 758 mmHg 54%
    14:00 +27°C° 0 mm 5 mps 757 mmHg 54%
    15:00 +26°C° 0 mm 5 mps 758 mmHg 59%
    16:00 +24°C° 0 mm 6 mps 758 mmHg 64%
    17:00 +23°C° 0 mm 6 mps 758 mmHg 69%
    18:00 +21°C° 0 mm 5 mps 759 mmHg 76%
    19:00 +20°C° 0 mm 5 mps 759 mmHg 82%
    20:00 +19°C° 0 mm 4 mps 760 mmHg 89%
    21:00 +18°C° 0 mm 4 mps 760 mmHg 89%
    22:00 +18°C° 0 mm 4 mps 760 mmHg 89%
    23:00 +18°C° 0 mm 4 mps 761 mmHg 90%

    24 October, Tuesday

    Time Temperature Precipitation Wind Pressure Humidity
    00:00 +18°C° 0 mm 4 mps 761 mmHg 89%
    01:00 +17°C° 0 mm 3 mps 760 mmHg 88%
    02:00 +17°C° 0 mm 3 mps 760 mmHg 88%
    03:00 +17°C° 0 mm 3 mps 760 mmHg 87%
    04:00 +17°C° 0 mm 3 mps 760 mmHg 87%
    05:00 +16°C° 0 mm 3 mps 761 mmHg 87%
    06:00 +17°C° 0 mm 3 mps 761 mmHg 82%
    07:00 +18°C° 0 mm 3 mps 762 mmHg 77%
    08:00 +19°C° 0 mm 3 mps 762 mmHg 72%
    09:00 +20°C° 0 mm 3 mps 762 mmHg 62%
    10:00 +22°C° 0 mm 3 mps 762 mmHg 53%
    11:00 +25°C° 0 mm 3 mps 762 mmHg 43%
    12:00 +25°C° 0 mm 4 mps 761 mmHg 43%
    13:00 +25°C° 0 mm 4 mps 761 mmHg 42%
    14:00 +25°C° 0 mm 4 mps 760 mmHg 41%
    15:00 +23°C° 0 mm 4 mps 760 mmHg 45%
    16:00 +22°C° 0 mm 4 mps 760 mmHg 49%
    17:00 +21°C° 0 mm 5 mps 760 mmHg 53%
    18:00 +20°C° 0 mm 4 mps 761 mmHg 61%
    19:00 +18°C° 0 mm 4 mps 762 mmHg 69%
    20:00 +17°C° 0 mm 4 mps 763 mmHg 76%
    21:00 +15°C° 0 mm 4 mps 763 mmHg 80%
    22:00 +16°C° 0 mm 3 mps 763 mmHg 83%
    23:00 +16°C° 0 mm 3 mps 763 mmHg 86%

    25 October, Wednesday

    Time Temperature Precipitation Wind Pressure Humidity
    00:00 +14°C° 0 mm 3 mps 763 mmHg 87%
    01:00 +14°C° 0 mm 3 mps 762 mmHg 88%
    02:00 +15°C° 0 mm 2 mps 762 mmHg 89%
    03:00 +15°C° 0 mm 2 mps 762 mmHg 89%
    04:00 +15°C° 0 mm 2 mps 762 mmHg 89%
    05:00 +15°C° 0 mm 1 mps 762 mmHg 89%
    06:00 +16°C° 0 mm 2 mps 762 mmHg 83%
    07:00 +18°C° 0 mm 2 mps 763 mmHg 77%
    08:00 +20°C° 0 mm 3 mps 763 mmHg 70%
    09:00 +21°C° 0 mm 3 mps 763 mmHg 67%
    10:00 +22°C° 0 mm 4 mps 763 mmHg 63%
    11:00 +23°C° 0 mm 4 mps 762 mmHg 59%
    12:00 +23°C° 0 mm 5 mps 762 mmHg 58%
    13:00 +25°C° 0 mm 5 mps 762 mmHg 56%
    14:00 +25°C° 0 mm 5 mps 761 mmHg 55%
    15:00 +23°C° 0.1 mm 5 mps 761 mmHg 59%
    16:00 +23°C° 0.1 mm 5 mps 761 mmHg 63%
    17:00 +22°C° 0.1 mm 5 mps 761 mmHg 67%
    18:00 +20°C° 0.1 mm 5 mps 761 mmHg 74%
    19:00 +19°C° 0.1 mm 4 mps 762 mmHg 81%
    20:00 +18°C° 0.1 mm 3 mps 762 mmHg 89%
    21:00 +17°C° 0 mm 4 mps 762 mmHg 89%
    22:00 +17°C° 0 mm 4 mps 762 mmHg 89%
    23:00 +17°C° 0 mm 4 mps 762 mmHg 89%
    Show more